DW8935 Weather Reports


time (UTC)temp
C
wind
direction
speed
KPH
gust
KPH
rain 1hr
cm
rain 24hr
cm
rain mn
cm
humidity
%
barometer
mb
20260508171520 12 271 0.0 3.2 0.00 0.00 0.00 87 1025.8
20260508170019 12 238 0.0 4.8 0.00 0.00 0.00 88 1026.0
20260508164518 12 219 0.0 6.4 0.00 0.00 0.00 88 1025.8
20260508163017 12 275 0.0 4.8 0.00 0.00 0.00 88 1025.8
20260508161516 11 269 0.0 3.2 0.00 0.00 0.00 88 1025.8
20260508160018 11 263 0.0 0.0 0.00 0.00 0.00 88 1025.7
20260508154516 11 263 0.0 0.0 0.00 0.00 0.00 88 1025.8
20260508153016 11 263 0.0 4.8 0.00 0.00 0.00 88 1025.7
20260508151514 11 278 0.0 0.0 0.00 0.00 0.00 88 1025.7
20260508150019 11 275 0.0 0.0 0.00 0.00 0.00 87 1025.6
20260508144527 11 275 0.0 0.0 0.00 0.00 0.00 86 1025.7
20260508143010 12 275 0.0 0.0 0.00 0.00 0.00 86 1025.6
20260508141508 12 275 0.0 3.2 0.00 0.00 0.00 86 1025.6
20260508140010 12 244 0.0 0.0 0.00 0.00 0.00 87 1025.6
20260508134506 12 244 0.0 0.0 0.00 0.00 0.00 86 1025.6
20260508133006 12 244 0.0 0.0 0.00 0.00 0.00 85 1025.7
20260508131506 12 244 0.0 0.0 0.00 0.00 0.00 85 1025.7
20260508130005 12 244 0.0 4.8 0.00 0.00 0.00 85 1025.7
20260508124505 12 235 1.6 8.0 0.00 0.00 0.00 85 1025.9
20260508123005 12 213 1.6 4.8 0.00 0.00 0.00 85 1025.9
20260508121505 13 223 1.6 9.7 0.00 0.00 0.00 86 1026.0
20260508120004 13 216 0.0 4.8 0.00 0.00 0.00 86 1026.1
20260508114501 12 224 0.0 4.8 0.00 0.00 0.00 86 1025.9
20260508113001 12 234 0.0 4.8 0.00 0.00 0.00 86 1025.6
20260508111608 12 233 0.0 9.7 0.00 0.00 0.00 86 1025.6
20260508104558 12 261 0.0 3.2 0.00 0.00 0.00 86 1025.5
20260508103101 12 280 0.0 3.2 0.00 0.00 0.00 86 1025.4
20260508101615 12 269 0.0 3.2 0.00 0.00 0.00 85 1025.2
20260508100056 13 243 0.0 4.8 0.00 0.00 0.00 85 1025.2
20260508094555 13 246 0.0 6.4 0.00 0.00 0.00 85 1025.0
20260508093056 13 233 0.0 8.0 0.00 0.00 0.00 85 1025.1
20260508091606 13 269 0.0 4.8 0.00 0.00 0.00 85 1025.0
20260508090108 13 260 0.0 4.8 0.00 0.00 0.00 85 1024.9
20260508084553 13 244 1.6 6.4 0.00 0.00 0.00 84 1024.9
20260508083051 13 206 0.0 11.3 0.00 0.00 0.00 84 1024.7
20260508081558 13 195 4.8 14.5 0.00 0.00 0.00 83 1024.6
20260508080048 13 223 3.2 8.0 0.00 0.00 0.00 82 1024.5
20260508074547 13 230 1.6 14.5 0.00 0.00 0.00 81 1024.0
20260508073052 13 222 1.6 12.9 0.00 0.00 0.00 80 1024.1
20260508071554 14 247 1.6 8.0 0.00 0.00 0.00 80 1023.9
20260508070046 15 180 3.2 9.7 0.00 0.00 0.00 77 1023.9
20260508064543 15 242 3.2 11.3 0.00 0.00 0.00 76 1023.6
20260508063043 15 197 8.0 17.7 0.00 0.00 0.00 75 1023.6
20260508061541 15 237 3.2 11.3 0.00 0.00 0.00 79 1023.4
20260508060041 15 193 3.2 11.3 0.00 0.00 0.00 78 1023.5
20260508054545 15 243 1.6 11.3 0.00 0.00 0.00 77 1023.5
20260508053101 15 214 9.7 17.7 0.00 0.00 0.00 73 1023.4
20260508051541 15 224 6.4 20.9 0.00 0.00 0.00 69 1023.2
20260508050041 16 250 4.8 14.5 0.00 0.00 0.00 69 1023.2
20260508044539 16 216 8.0 20.9 0.00 0.00 0.00 67 1023.0
20260508043038 16 263 9.7 20.9 0.00 0.00 0.00 67 1023.1
20260508041603 15 229 9.7 25.7 0.00 0.00 0.00 70 1023.1
20260508040043 15 268 14.5 27.4 0.00 0.00 0.00 72 1023.2
20260508034537 15 234 8.0 22.5 0.00 0.00 0.00 72 1023.0
20260508033035 16 254 9.7 22.5 0.00 0.00 0.00 71 1022.9
20260508031537 16 214 8.0 24.1 0.00 0.00 0.00 71 1022.8
20260508030036 15 233 11.3 22.5 0.00 0.00 0.00 73 1022.7
20260508024534 15 248 8.0 25.7 0.00 0.00 0.00 73 1023.1
20260508023034 15 233 8.0 30.6 0.00 0.00 0.00 72 1023.0
20260508021534 15 207 9.7 24.1 0.00 0.00 0.00 74 1023.0
20260508020039 15 227 9.7 19.3 0.00 0.00 0.00 75 1023.2
20260508014528 15 244 9.7 29.0 0.00 0.00 0.00 76 1023.4
20260508013025 15 222 8.0 16.1 0.00 0.00 0.00 82 1023.2
20260508011524 14 227 0.0 4.8 0.00 0.00 0.00 86 1023.3
20260508010022 15 229 0.0 1.6 0.00 0.00 0.00 86 1023.2
20260508004521 14 275 0.0 1.6 0.00 0.00 0.00 87 1023.0
20260508003019 15 267 0.0 0.0 0.00 0.00 0.00 87 1022.8
20260508001516 14 244 0.0 0.0 0.00 0.00 0.00 90 1022.6
20260508000015 13 289 0.0 0.0 0.00 0.00 0.00 91 1022.6
20260507234514 13 268 0.0 0.0 0.00 0.00 0.00 92 1022.4
20260507233028 13 271 0.0 0.0 0.00 0.00 0.00 92 1022.6
20260507231511 13 300 0.0 0.0 0.00 0.00 0.00 92 1022.5
20260507230010 13 262 0.0 0.0 0.00 0.00 0.00 92 1022.4
20260507224509 13 273 0.0 0.0 0.00 0.00 0.00 93 1022.2
20260507223007 12 280 0.0 0.0 0.00 0.00 0.00 93 1022.0
20260507221505 12 232 0.0 0.0 0.00 0.00 0.00 92 1021.9
20260507220003 12 232 0.0 0.0 0.00 0.00 0.00 93 1021.8
20260507214500 12 249 0.0 0.0 0.00 0.00 0.00 93 1021.5
20260507213106 12 243 0.0 0.0 0.00 0.00 0.00 93 1021.2
20260507211559 12 220 0.0 0.0 0.00 0.00 0.00 93 1021.2
20260507210104 12 229 0.0 0.0 0.00 0.00 0.00 93 1020.9
20260507204558 12 269 0.0 0.0 0.00 0.00 0.00 93 1020.8
20260507203058 12 221 0.0 0.0 0.00 0.00 0.00 93 1020.5
20260507201557 12 246 0.0 0.0 0.00 0.00 0.00 93 1020.7
20260507200057 12 245 0.0 0.0 0.00 0.00 0.00 93 1020.9
20260507194618 12 225 0.0 1.6 0.00 0.00 0.00 92 1020.6
20260507193055 12 236 0.0 1.6 0.00 0.00 0.00 92 1020.3
20260507191553 12 248 0.0 0.0 0.00 0.00 0.00 92 1020.3
20260507190054 12 257 0.0 0.0 0.00 0.00 0.00 92 1020.1
20260507184552 12 238 0.0 1.6 0.00 0.00 0.00 92 1020.0
20260507183051 12 304 0.0 1.6 0.00 0.00 0.00 91 1019.8
20260507181556 12 257 0.0 0.0 0.00 0.00 0.00 91 1019.7
20260507180051 12 277 0.0 0.0 0.00 0.00 0.00 90 1019.6
20260507174557 12 275 0.0 0.0 0.00 0.00 0.00 90 1019.5
20260507173119 12 286 0.0 0.0 0.00 0.00 0.00 89 1019.5